When you browse on this site, cookies collect data to enhance your experience and personalize the content and advertising you see.
Visit our Privacy Policy to learn more. By continuing to use the site, you agree to this use of cookies and data.
EN

Hourly Weather Stepanakert

Today, 20 September, Sunday

Time Temperature Precipitation Wind Pressure Humidity
00:00 +19°C° 0 mm 1 mps 692 mmHg 85%
01:00 +19°C° 0 mm 1 mps 692 mmHg 87%
02:00 +18°C° 0 mm 1 mps 692 mmHg 89%
03:00 +16°C° 0 mm 0 mps 693 mmHg 91%
04:00 +16°C° 0 mm 0 mps 693 mmHg 91%
05:00 +16°C° 0 mm 0 mps 693 mmHg 91%
06:00 +16°C° 0 mm 0 mps 694 mmHg 92%
07:00 +18°C° 0 mm 1 mps 694 mmHg 86%
08:00 +19°C° 0 mm 1 mps 694 mmHg 80%
09:00 +19°C° 0 mm 2 mps 694 mmHg 74%
10:00 +20°C° 0 mm 2 mps 694 mmHg 73%
11:00 +20°C° 0 mm 2 mps 694 mmHg 71%
12:00 +20°C° 0 mm 2 mps 694 mmHg 69%
13:00 +20°C° 0 mm 2 mps 693 mmHg 68%
14:00 +21°C° 0 mm 2 mps 693 mmHg 66%
15:00 +21°C° 0 mm 2 mps 692 mmHg 66%
16:00 +20°C° 0 mm 2 mps 692 mmHg 69%
17:00 +19°C° 0 mm 2 mps 692 mmHg 72%
18:00 +20°C° 0 mm 1 mps 692 mmHg 74%
19:00 +19°C° 0 mm 1 mps 693 mmHg 78%
20:00 +19°C° 0 mm 1 mps 693 mmHg 82%
21:00 +18°C° 0 mm 1 mps 694 mmHg 85%
22:00 +18°C° 0 mm 1 mps 694 mmHg 86%
23:00 +16°C° 0 mm 0 mps 694 mmHg 87%

Tomorrow, 21 September, Monday

Time Temperature Precipitation Wind Pressure Humidity
00:00 +16°C° 0 mm 0 mps 694 mmHg 88%
01:00 +18°C° 0 mm 1 mps 694 mmHg 90%
02:00 +18°C° 0 mm 1 mps 694 mmHg 92%
03:00 +16°C° 0 mm 1 mps 695 mmHg 94%
04:00 +16°C° 0.1 mm 1 mps 695 mmHg 94%
05:00 +16°C° 0.1 mm 1 mps 695 mmHg 94%
06:00 +16°C° 0.1 mm 1 mps 696 mmHg 94%
07:00 +16°C° 0.3 mm 1 mps 696 mmHg 94%
08:00 +16°C° 0.3 mm 1 mps 696 mmHg 94%
09:00 +16°C° 0.3 mm 2 mps 696 mmHg 95%
10:00 +17°C° 0.3 mm 2 mps 696 mmHg 93%
11:00 +17°C° 0.3 mm 2 mps 696 mmHg 92%
12:00 +17°C° 0.3 mm 2 mps 696 mmHg 91%
13:00 +17°C° 0.1 mm 2 mps 696 mmHg 91%
14:00 +17°C° 0.1 mm 2 mps 696 mmHg 91%
15:00 +17°C° 0.1 mm 2 mps 696 mmHg 91%
16:00 +16°C° 0 mm 2 mps 695 mmHg 92%
17:00 +16°C° 0 mm 1 mps 695 mmHg 93%
18:00 +16°C° 0 mm 1 mps 695 mmHg 93%
19:00 +16°C° 0 mm 1 mps 695 mmHg 94%
20:00 +14°C° 0 mm 0 mps 696 mmHg 94%
21:00 +14°C° 0 mm 0 mps 696 mmHg 94%
22:00 +14°C° 0 mm 0 mps 696 mmHg 94%
23:00 +14°C° 0 mm 0 mps 696 mmHg 93%

Day after tomorrow, 22 September, Tuesday

Time Temperature Precipitation Wind Pressure Humidity
00:00 +14°C° 0 mm 0 mps 696 mmHg 92%
01:00 +14°C° 0 mm 0 mps 696 mmHg 93%
02:00 +14°C° 0 mm 0 mps 695 mmHg 93%
03:00 +14°C° 0 mm 0 mps 695 mmHg 93%
04:00 +14°C° 0 mm 0 mps 695 mmHg 92%
05:00 +14°C° 0 mm 0 mps 696 mmHg 91%
06:00 +14°C° 0 mm 0 mps 696 mmHg 90%
07:00 +15°C° 0 mm 0 mps 696 mmHg 85%
08:00 +18°C° 0 mm 1 mps 696 mmHg 80%
09:00 +20°C° 0 mm 1 mps 696 mmHg 75%
10:00 +19°C° 0 mm 2 mps 696 mmHg 73%
11:00 +20°C° 0 mm 2 mps 696 mmHg 72%
12:00 +21°C° 0 mm 2 mps 695 mmHg 70%
13:00 +21°C° 0.1 mm 2 mps 695 mmHg 71%
14:00 +21°C° 0.1 mm 2 mps 695 mmHg 72%
15:00 +21°C° 0.1 mm 2 mps 694 mmHg 73%
16:00 +20°C° 0.4 mm 2 mps 694 mmHg 77%
17:00 +20°C° 0.4 mm 1 mps 694 mmHg 81%
18:00 +19°C° 0.4 mm 1 mps 694 mmHg 84%
19:00 +19°C° 0.1 mm 1 mps 695 mmHg 84%
20:00 +19°C° 0.1 mm 1 mps 695 mmHg 84%
21:00 +17°C° 0.1 mm 0 mps 696 mmHg 84%
22:00 +17°C° 0 mm 0 mps 696 mmHg 85%
23:00 +17°C° 0 mm 0 mps 695 mmHg 86%

23 September, Wednesday

Time Temperature Precipitation Wind Pressure Humidity
00:00 +17°C° 0 mm 0 mps 695 mmHg 87%
01:00 +17°C° 0 mm 0 mps 695 mmHg 87%
02:00 +16°C° 0 mm 0 mps 695 mmHg 88%
03:00 +16°C° 0 mm 0 mps 695 mmHg 89%
04:00 +16°C° 0 mm 0 mps 695 mmHg 90%
05:00 +16°C° 0 mm 0 mps 695 mmHg 90%
06:00 +16°C° 0 mm 0 mps 695 mmHg 91%
07:00 +18°C° 0 mm 1 mps 695 mmHg 88%
08:00 +19°C° 0 mm 1 mps 695 mmHg 85%
09:00 +18°C° 0 mm 2 mps 695 mmHg 81%
10:00 +19°C° 0 mm 2 mps 695 mmHg 79%
11:00 +19°C° 0 mm 2 mps 695 mmHg 76%
12:00 +20°C° 0 mm 2 mps 695 mmHg 73%
13:00 +20°C° 0 mm 2 mps 694 mmHg 72%
14:00 +20°C° 0 mm 2 mps 694 mmHg 71%
15:00 +20°C° 0 mm 2 mps 693 mmHg 69%
16:00 +21°C° 0 mm 1 mps 693 mmHg 72%
17:00 +20°C° 0 mm 1 mps 693 mmHg 74%
18:00 +17°C° 0 mm 0 mps 693 mmHg 77%
19:00 +19°C° 0 mm 1 mps 693 mmHg 78%
20:00 +19°C° 0 mm 1 mps 694 mmHg 80%
21:00 +18°C° 0 mm 1 mps 694 mmHg 82%
22:00 +18°C° 0 mm 1 mps 694 mmHg 82%
23:00 +18°C° 0 mm 1 mps 694 mmHg 82%

24 September, Thursday

Time Temperature Precipitation Wind Pressure Humidity
00:00 +16°C° 0 mm 0 mps 694 mmHg 82%
01:00 +16°C° 0 mm 0 mps 693 mmHg 82%
02:00 +16°C° 0 mm 0 mps 693 mmHg 83%
03:00 +15°C° 0 mm 0 mps 693 mmHg 84%
04:00 +15°C° 0 mm 0 mps 693 mmHg 84%
05:00 +15°C° 0 mm 0 mps 693 mmHg 85%
06:00 +15°C° 0 mm 0 mps 694 mmHg 85%
07:00 +19°C° 0 mm 1 mps 694 mmHg 78%
08:00 +20°C° 0 mm 1 mps 694 mmHg 70%
09:00 +22°C° 0 mm 1 mps 694 mmHg 63%
10:00 +23°C° 0 mm 2 mps 694 mmHg 59%
11:00 +24°C° 0 mm 2 mps 694 mmHg 55%
12:00 +25°C° 0 mm 3 mps 694 mmHg 51%
13:00 +25°C° 0 mm 3 mps 693 mmHg 50%
14:00 +25°C° 0 mm 2 mps 693 mmHg 50%
15:00 +25°C° 0 mm 2 mps 693 mmHg 49%
16:00 +24°C° 0 mm 2 mps 693 mmHg 54%
17:00 +23°C° 0 mm 1 mps 692 mmHg 58%
18:00 +19°C° 0 mm 0 mps 692 mmHg 63%
19:00 +21°C° 0 mm 1 mps 692 mmHg 65%
20:00 +20°C° 0 mm 1 mps 693 mmHg 66%
21:00 +20°C° 0 mm 1 mps 693 mmHg 68%
22:00 +20°C° 0 mm 1 mps 693 mmHg 70%
23:00 +19°C° 0 mm 1 mps 693 mmHg 71%

25 September, Friday

Time Temperature Precipitation Wind Pressure Humidity
00:00 +19°C° 0 mm 1 mps 693 mmHg 72%
01:00 +19°C° 0 mm 1 mps 692 mmHg 73%
02:00 +18°C° 0 mm 1 mps 692 mmHg 73%
03:00 +18°C° 0 mm 1 mps 692 mmHg 74%
04:00 +18°C° 0 mm 1 mps 692 mmHg 75%
05:00 +18°C° 0 mm 1 mps 692 mmHg 75%
06:00 +18°C° 0 mm 1 mps 692 mmHg 76%
07:00 +20°C° 0 mm 1 mps 692 mmHg 69%
08:00 +21°C° 0 mm 1 mps 693 mmHg 61%
09:00 +23°C° 0 mm 1 mps 693 mmHg 54%
10:00 +24°C° 0 mm 2 mps 693 mmHg 50%
11:00 +25°C° 0 mm 2 mps 692 mmHg 45%
12:00 +26°C° 0 mm 3 mps 692 mmHg 41%
13:00 +26°C° 0 mm 3 mps 692 mmHg 39%
14:00 +26°C° 0 mm 3 mps 691 mmHg 38%
15:00 +26°C° 0 mm 2 mps 691 mmHg 37%
16:00 +25°C° 0 mm 2 mps 691 mmHg 40%
17:00 +23°C° 0 mm 1 mps 691 mmHg 42%
18:00 +21°C° 0 mm 1 mps 690 mmHg 44%
19:00 +21°C° 0 mm 1 mps 691 mmHg 46%
20:00 +20°C° 0 mm 1 mps 691 mmHg 48%
21:00 +19°C° 0 mm 1 mps 691 mmHg 49%
22:00 +19°C° 0 mm 1 mps 691 mmHg 51%
23:00 +19°C° 0 mm 1 mps 691 mmHg 53%
Show more